| time (UTC) | temp C | wind direction | speed KPH | gust KPH | rain 1hr cm | rain 24hr cm | rain mn cm | humidity % | barometer mb |
| 20260503034350 | 16 | 239 | 0.0 | 0.0 | 0.00 | 0.00 | 0.00 | 36 | 1009.1 |
| 20260503033329 | 17 | 239 | 0.0 | 0.0 | 0.00 | 0.00 | 0.00 | 35 | 1009.1 |
| 20260503032332 | 17 | 239 | 0.0 | 0.0 | 0.00 | 0.00 | 0.00 | 33 | 1009.1 |
| 20260503031330 | 18 | 239 | 0.0 | 0.0 | 0.00 | 0.00 | 0.00 | 32 | 1009.0 |
| 20260503030336 | 18 | 239 | 0.0 | 0.0 | 0.00 | 0.00 | 0.00 | 31 | 1009.1 |
| 20260503025323 | 19 | 239 | 0.0 | 0.0 | 0.00 | 0.00 | 0.00 | 30 | 1009.2 |
| 20260503024347 | 19 | 239 | 0.0 | 0.0 | 0.00 | 0.00 | 0.00 | 29 | 1009.2 |
| 20260503023352 | 20 | 278 | 0.0 | 0.0 | 0.00 | 0.00 | 0.00 | 29 | 1009.1 |
| 20260503022348 | 20 | 278 | 0.0 | 1.6 | 0.00 | 0.00 | 0.00 | 28 | 1009.1 |
| 20260503021332 | 20 | 278 | 0.0 | 4.8 | 0.00 | 0.00 | 0.00 | 28 | 1009.1 |
| 20260503020325 | 20 | 229 | 0.0 | 4.8 | 0.00 | 0.00 | 0.00 | 29 | 1009.1 |
| 20260503015329 | 21 | 287 | 1.6 | 4.8 | 0.00 | 0.00 | 0.00 | 29 | 1009.2 |
| 20260503014410 | 21 | 161 | 1.6 | 4.8 | 0.00 | 0.00 | 0.00 | 29 | 1009.3 |
| 20260503013340 | 21 | 231 | 0.0 | 3.2 | 0.00 | 0.00 | 0.00 | 29 | 1009.4 |
| 20260503012324 | 21 | 173 | 0.0 | 4.8 | 0.00 | 0.00 | 0.00 | 29 | 1009.5 |
| 20260503011348 | 21 | 247 | 1.6 | 6.4 | 0.00 | 0.00 | 0.00 | 28 | 1009.5 |
| 20260503010413 | 21 | 175 | 1.6 | 12.9 | 0.00 | 0.00 | 0.00 | 28 | 1009.5 |
| 20260503005329 | 22 | 146 | 3.2 | 9.7 | 0.00 | 0.00 | 0.00 | 27 | 1009.7 |
| 20260503004331 | 22 | 183 | 0.0 | 12.9 | 0.00 | 0.00 | 0.00 | 27 | 1009.8 |
| 20260503003354 | 22 | 182 | 4.8 | 22.5 | 0.00 | 0.00 | 0.00 | 27 | 1010.0 |
| 20260503002351 | 22 | 197 | 3.2 | 9.7 | 0.00 | 0.00 | 0.00 | 28 | 1010.2 |
| 20260503001327 | 22 | 304 | 1.6 | 9.7 | 0.00 | 0.00 | 0.00 | 28 | 1010.5 |
| 20260503000347 | 22 | 279 | 1.6 | 11.3 | 0.00 | 0.00 | 0.00 | 27 | 1010.6 |
| 20260502235330 | 22 | 202 | 1.6 | 14.5 | 0.00 | 0.00 | 0.00 | 27 | 1010.7 |
| 20260502234328 | 22 | 217 | 4.8 | 11.3 | 0.00 | 0.00 | 0.00 | 27 | 1011.0 |
| 20260502233332 | 22 | 196 | 3.2 | 12.9 | 0.00 | 0.00 | 0.00 | 27 | 1011.1 |
| 20260502232352 | 22 | 200 | 1.6 | 16.1 | 0.00 | 0.00 | 0.00 | 28 | 1011.3 |
| 20260502231329 | 22 | 173 | 4.8 | 11.3 | 0.00 | 0.00 | 0.00 | 26 | 1011.5 |
| 20260502230351 | 22 | 178 | 6.4 | 14.5 | 0.00 | 0.00 | 0.00 | 27 | 1011.8 |
| 20260502225330 | 22 | 269 | 1.6 | 14.5 | 0.00 | 0.00 | 0.00 | 27 | 1011.9 |
| 20260502224334 | 22 | 198 | 6.4 | 17.7 | 0.00 | 0.00 | 0.00 | 27 | 1012.1 |
| 20260502223335 | 22 | 144 | 3.2 | 16.1 | 0.00 | 0.00 | 0.00 | 28 | 1012.3 |
| 20260502222329 | 22 | 173 | 1.6 | 9.7 | 0.00 | 0.00 | 0.00 | 29 | 1012.5 |
| 20260502221412 | 22 | 205 | 3.2 | 17.7 | 0.00 | 0.00 | 0.00 | 28 | 1012.7 |
| 20260502220349 | 22 | 193 | 4.8 | 16.1 | 0.00 | 0.00 | 0.00 | 28 | 1012.8 |
| 20260502215342 | 22 | 232 | 1.6 | 9.7 | 0.00 | 0.00 | 0.00 | 28 | 1013.0 |
| 20260502214337 | 22 | 187 | 1.6 | 19.3 | 0.00 | 0.00 | 0.00 | 28 | 1013.2 |
| 20260502213333 | 22 | 169 | 4.8 | 14.5 | 0.00 | 0.00 | 0.00 | 28 | 1013.4 |
| 20260502212333 | 22 | 241 | 0.0 | 8.0 | 0.00 | 0.00 | 0.00 | 29 | 1013.5 |
| 20260502211330 | 21 | 163 | 1.6 | 11.3 | 0.00 | 0.00 | 0.00 | 29 | 1013.8 |
| 20260502210327 | 21 | 173 | 1.6 | 12.9 | 0.00 | 0.00 | 0.00 | 28 | 1013.8 |
| 20260502205328 | 21 | 288 | 3.2 | 16.1 | 0.00 | 0.00 | 0.00 | 29 | 1013.9 |
| 20260502204351 | 21 | 257 | 1.6 | 9.7 | 0.00 | 0.00 | 0.00 | 29 | 1014.1 |
| 20260502203330 | 21 | 138 | 0.0 | 9.7 | 0.00 | 0.00 | 0.00 | 29 | 1014.2 |
| 20260502202330 | 21 | 165 | 0.0 | 14.5 | 0.00 | 0.00 | 0.00 | 28 | 1014.7 |
| 20260502201350 | 21 | 208 | 0.0 | 6.4 | 0.00 | 0.00 | 0.00 | 29 | 1014.7 |
| 20260502200348 | 21 | 239 | 1.6 | 6.4 | 0.00 | 0.00 | 0.00 | 30 | 1014.8 |
| 20260502195348 | 20 | 171 | 1.6 | 9.7 | 0.00 | 0.00 | 0.00 | 30 | 1015.0 |
| 20260502194332 | 20 | 223 | 3.2 | 14.5 | 0.00 | 0.00 | 0.00 | 30 | 1015.2 |
| 20260502193338 | 20 | 246 | 3.2 | 16.1 | 0.00 | 0.00 | 0.00 | 28 | 1015.3 |
| 20260502192338 | 20 | 155 | 1.6 | 8.0 | 0.00 | 0.00 | 0.00 | 29 | 1015.4 |
| 20260502191332 | 20 | 211 | 1.6 | 6.4 | 0.00 | 0.00 | 0.00 | 31 | 1015.6 |
| 20260502190355 | 20 | 164 | 3.2 | 16.1 | 0.00 | 0.00 | 0.00 | 31 | 1015.7 |
| 20260502185335 | 20 | 233 | 4.8 | 14.5 | 0.00 | 0.00 | 0.00 | 30 | 1016.0 |
| 20260502184329 | 20 | 231 | 0.0 | 24.1 | 0.00 | 0.00 | 0.00 | 31 | 1016.0 |
| 20260502183329 | 20 | 285 | 3.2 | 14.5 | 0.00 | 0.00 | 0.00 | 32 | 1016.2 |
| 20260502182330 | 20 | 232 | 1.6 | 9.7 | 0.00 | 0.00 | 0.00 | 32 | 1016.4 |
| 20260502181350 | 20 | 291 | 0.0 | 8.0 | 0.00 | 0.00 | 0.00 | 31 | 1016.6 |
| 20260502180350 | 20 | 273 | 1.6 | 6.4 | 0.00 | 0.00 | 0.00 | 31 | 1016.9 |
| 20260502170330 | 18 | 246 | 0.0 | 4.8 | 0.00 | 0.00 | 0.00 | 34 | 1017.5 |
| 20260502164330 | 18 | 186 | 0.0 | 3.2 | 0.00 | 0.00 | 0.00 | 36 | 1017.7 |
| 20260502163352 | 18 | 196 | 0.0 | 4.8 | 0.00 | 0.00 | 0.00 | 37 | 1017.8 |
| 20260502162351 | 17 | 264 | 0.0 | 3.2 | 0.00 | 0.00 | 0.00 | 38 | 1017.9 |
| 20260502161328 | 17 | 203 | 1.6 | 4.8 | 0.00 | 0.00 | 0.00 | 38 | 1018.0 |
| 20260502160326 | 17 | 211 | 0.0 | 1.6 | 0.00 | 0.00 | 0.00 | 40 | 1018.0 |
| 20260502152329 | 15 | 190 | 0.0 | 1.6 | 0.00 | 0.00 | 0.00 | 50 | 1018.4 |
| 20260502151328 | 13 | 200 | 0.0 | 1.6 | 0.00 | 0.00 | 0.00 | 54 | 1018.5 |
| 20260502150352 | 13 | 212 | 0.0 | 1.6 | 0.00 | 0.00 | 0.00 | 52 | 1018.5 |
| 20260502130325 | 2 | 209 | 0.0 | 0.0 | 0.00 | 0.00 | 0.00 | 84 | 1018.6 |
| 20260502123327 | 1 | 262 | 0.0 | 0.0 | 0.00 | 0.00 | 0.00 | 83 | 1018.6 |
| 20260502122348 | 1 | 262 | 0.0 | 0.0 | 0.00 | 0.00 | 0.00 | 83 | 1018.6 |
| 20260502121324 | 1 | 262 | 0.0 | 0.0 | 0.00 | 0.00 | 0.00 | 83 | 1018.5 |
| 20260502120350 | 1 | 262 | 0.0 | 0.0 | 0.00 | 0.00 | 0.00 | 83 | 1018.4 |
| 20260502115323 | 1 | 262 | 0.0 | 0.0 | 0.00 | 0.00 | 0.00 | 82 | 1018.4 |
| 20260502114328 | 1 | 262 | 0.0 | 0.0 | 0.00 | 0.00 | 0.00 | 82 | 1018.3 |
| 20260502113352 | 1 | 262 | 0.0 | 0.0 | 0.00 | 0.00 | 0.00 | 81 | 1018.3 |
| 20260502112333 | 1 | 262 | 0.0 | 0.0 | 0.00 | 0.00 | 0.00 | 81 | 1018.3 |
| 20260502111331 | 2 | 262 | 0.0 | 0.0 | 0.00 | 0.00 | 0.00 | 81 | 1018.3 |
| 20260502110333 | 2 | 262 | 0.0 | 0.0 | 0.00 | 0.00 | 0.00 | 80 | 1018.3 |
| 20260502105326 | 2 | 262 | 0.0 | 0.0 | 0.00 | 0.00 | 0.00 | 80 | 1018.3 |
| 20260502104327 | 2 | 262 | 0.0 | 0.0 | 0.00 | 0.00 | 0.00 | 80 | 1018.3 |
| 20260502103352 | 2 | 262 | 0.0 | 0.0 | 0.00 | 0.00 | 0.00 | 79 | 1018.2 |
| 20260502102325 | 2 | 262 | 0.0 | 0.0 | 0.00 | 0.00 | 0.00 | 79 | 1018.3 |
| 20260502101328 | 3 | 262 | 0.0 | 0.0 | 0.00 | 0.00 | 0.00 | 79 | 1018.2 |
| 20260502100351 | 3 | 262 | 0.0 | 0.0 | 0.00 | 0.00 | 0.00 | 79 | 1018.1 |
| 20260502091329 | 3 | 269 | 0.0 | 0.0 | 0.00 | 0.00 | 0.00 | 80 | 1018.1 |
| 20260502090349 | 3 | 279 | 0.0 | 0.0 | 0.00 | 0.00 | 0.00 | 80 | 1018.0 |
| 20260502071332 | 6 | 311 | 0.0 | 0.0 | 0.00 | 0.00 | 0.00 | 73 | 1017.6 |
| 20260502070338 | 6 | 311 | 0.0 | 0.0 | 0.00 | 0.00 | 0.00 | 72 | 1017.6 |
| 20260502065329 | 7 | 311 | 0.0 | 0.0 | 0.00 | 0.00 | 0.00 | 71 | 1017.6 |
| 20260502064351 | 7 | 311 | 0.0 | 0.0 | 0.00 | 0.00 | 0.00 | 71 | 1017.5 |
| 20260502063349 | 7 | 311 | 0.0 | 0.0 | 0.00 | 0.00 | 0.00 | 70 | 1017.4 |
| 20260502062323 | 7 | 311 | 0.0 | 0.0 | 0.00 | 0.00 | 0.00 | 69 | 1017.4 |
| 20260502061327 | 7 | 311 | 0.0 | 0.0 | 0.00 | 0.00 | 0.00 | 69 | 1017.4 |
| 20260502060413 | 8 | 311 | 0.0 | 0.0 | 0.00 | 0.00 | 0.00 | 68 | 1017.3 |
| 20260502055347 | 8 | 311 | 0.0 | 0.0 | 0.00 | 0.00 | 0.00 | 67 | 1017.3 |
| 20260502054323 | 8 | 311 | 0.0 | 0.0 | 0.00 | 0.00 | 0.00 | 67 | 1017.3 |
| 20260502053333 | 8 | 311 | 0.0 | 0.0 | 0.00 | 0.00 | 0.00 | 66 | 1017.2 |
| 20260502052323 | 8 | 311 | 0.0 | 0.0 | 0.00 | 0.00 | 0.00 | 65 | 1017.2 |
| 20260502051326 | 9 | 311 | 0.0 | 0.0 | 0.00 | 0.00 | 0.00 | 63 | 1017.1 |
| 20260502050351 | 9 | 311 | 0.0 | 0.0 | 0.00 | 0.00 | 0.00 | 61 | 1017.0 |
| 20260502045342 | 10 | 311 | 0.0 | 0.0 | 0.00 | 0.00 | 0.00 | 59 | 1017.0 |
| 20260502044336 | 10 | 311 | 0.0 | 0.0 | 0.00 | 0.00 | 0.00 | 58 | 1016.9 |
| 20260502043400 | 11 | 311 | 0.0 | 0.0 | 0.00 | 0.00 | 0.00 | 57 | 1016.9 |
| 20260502042401 | 11 | 311 | 0.0 | 0.0 | 0.00 | 0.00 | 0.00 | 56 | 1016.8 |
| 20260502041336 | 12 | 302 | 0.0 | 0.0 | 0.00 | 0.00 | 0.00 | 54 | 1016.7 |
| 20260502040400 | 12 | 302 | 0.0 | 0.0 | 0.00 | 0.00 | 0.00 | 53 | 1016.6 |
| 20260502035331 | 12 | 300 | 0.0 | 0.0 | 0.00 | 0.00 | 0.00 | 52 | 1016.5 |